KG4QXL-1 Weather Reports


time (UTC)temp
C
wind
direction
speed
KPH
gust
KPH
rain 1hr
cm
rain 24hr
cm
rain mn
cm
humidity
%
barometer
mb
20260507221553 18 235 3.2 9.7 0.00 0.00 0.00 35 1014.7
20260507220553 18 30 1.6 4.8 0.00 0.00 0.00 39 1014.5
20260507215553 20 277 1.6 9.7 0.00 0.00 0.00 35 1014.5
20260507214553 20 239 1.6 4.8 0.00 0.00 0.00 33 1014.4
20260507213612 20 91 0.0 3.2 0.00 0.00 0.00 37 1014.4
20260507212553 20 7 1.6 4.8 0.00 0.00 0.00 38 1014.3
20260507211553 18 221 1.6 3.2 0.00 0.00 0.00 40 1014.4
20260507210553 19 132 0.0 4.8 0.00 0.00 0.00 43 1014.3
20260507205613 20 0.0 1.6 0.00 0.00 0.00 38 1014.3
20260507204553 20 203 0.0 3.2 0.00 0.00 0.00 41 1014.3
20260507203553 21 38 0.0 1.6 0.00 0.00 0.00 39 1014.3
20260507202553 20 91 0.0 4.8 0.00 0.00 0.00 42 1014.3
20260507201553 21 243 3.2 6.4 0.00 0.00 0.00 38 1014.2
20260507200553 21 215 1.6 9.7 0.00 0.00 0.00 38 1014.3
20260507195553 21 223 1.6 4.8 0.00 0.00 0.00 38 1014.4
20260507194552 22 177 1.6 4.8 0.00 0.00 0.00 40 1014.4
20260507193554 22 330 1.6 6.4 0.00 0.00 0.00 38 1014.6
20260507192554 21 225 1.6 4.8 0.00 0.00 0.00 40 1014.8
20260507191553 21 326 0.0 3.2 0.00 0.00 0.00 39 1014.8
20260507190613 21 171 1.6 4.8 0.00 0.00 0.00 39 1015.0
20260507185613 21 201 0.0 4.8 0.00 0.00 0.00 39 1015.3
20260507184553 20 313 1.6 4.8 0.00 0.00 0.00 41 1015.5
20260507183553 19 235 3.2 6.4 0.00 0.00 0.00 43 1016.8
20260507182553 20 234 0.0 6.4 0.00 0.00 0.00 41 1015.4
20260507181553 19 254 1.6 6.4 0.00 0.00 0.00 45 1015.5
20260507180553 19 152 3.2 6.4 0.00 0.00 0.00 42 1016.0
20260507175613 18 149 1.6 4.8 0.00 0.00 0.00 43 1016.0
20260507174553 18 184 1.6 3.2 0.00 0.00 0.00 44 1016.2
20260507173613 18 275 1.6 4.8 0.00 0.00 0.00 45 1016.4
20260507172613 18 263 3.2 4.8 0.00 0.00 0.00 44 1016.7
20260507171613 18 80 1.6 6.4 0.00 0.00 0.00 43 1016.5
20260507170553 18 221 3.2 4.8 0.00 0.00 0.00 42 1017.0
20260507165553 17 211 3.2 6.4 0.00 0.00 0.00 44 1017.2
20260507164554 16 183 1.6 6.4 0.00 0.00 0.00 44 1017.6
20260507163553 17 74 1.6 4.8 0.00 0.00 0.00 43 1017.7
20260507162553 16 113 0.0 3.2 0.00 0.00 0.00 44 1017.9
20260507161554 16 202 1.6 3.2 0.00 0.00 0.00 44 1018.1
20260507160552 16 222 1.6 3.2 0.00 0.00 0.00 45 1017.0
20260507155632 16 249 3.2 9.7 0.00 0.00 0.00 47 1017.0
20260507154552 15 200 1.6 11.3 0.00 0.00 0.00 47 1017.3
20260507153553 15 203 0.0 3.2 0.00 0.00 0.00 47 1018.2
20260507152553 14 147 1.6 6.4 0.00 0.00 0.00 49 1018.9
20260507151553 14 60 0.0 4.8 0.00 0.00 0.00 50 1018.7
20260507150553 13 82 1.6 4.8 0.00 0.00 0.00 52 1019.1
20260507145553 13 237 1.6 4.8 0.00 0.00 0.00 51 1019.4
20260507144613 13 202 1.6 6.4 0.00 0.00 0.00 54 1019.6
20260507143613 12 88 0.0 4.8 0.00 0.00 0.00 57 1019.8
20260507142553 12 260 0.0 4.8 0.00 0.00 0.00 58 1019.8
20260507141553 12 84 0.0 1.6 0.00 0.00 0.00 59 1020.0
20260507140553 12 47 1.6 3.2 0.00 0.00 0.00 61 1020.1
20260507135553 12 63 0.0 3.2 0.00 0.00 0.00 63 1020.5
20260507134553 11 75 0.0 4.8 0.00 0.00 0.00 63 1020.5
20260507133553 11 0.0 1.6 0.00 0.03 0.00 66 1020.7
20260507132553 11 63 0.0 3.2 0.00 0.05 0.00 66 1021.0
20260507131553 11 0.0 3.2 0.00 0.05 0.00 67 1020.9
20260507130713 11 15 0.0 4.8 0.00 0.05 0.00 67 1020.9
20260507125613 11 88 0.0 3.2 0.00 0.05 0.00 66 1020.7
20260507124613 11 14 0.0 4.8 0.00 0.05 0.00 67 1020.8
20260507123613 11 73 0.0 3.2 0.00 0.05 0.00 69 1020.7
20260507122553 11 63 0.0 4.8 0.00 0.05 0.00 69 1020.7
20260507121553 11 224 0.0 4.8 0.00 0.05 0.00 70 1020.6
20260507120553 11 33 0.0 4.8 0.00 0.05 0.00 71 1020.7
20260507115553 11 56 1.6 4.8 0.00 0.05 0.00 70 1020.6
20260507114553 11 79 0.0 4.8 0.00 0.05 0.00 72 1020.6
20260507113553 11 0.0 3.2 0.00 0.08 0.00 74 1020.5
20260507112553 11 76 0.0 3.2 0.00 0.10 0.00 76 1020.3
20260507111613 11 0.0 3.2 0.00 0.13 0.00 77 1020.3
20260507110553 11 72 0.0 4.8 0.00 0.15 0.00 78 1020.1
20260507105553 11 77 1.6 3.2 0.00 0.18 0.00 79 1020.2
20260507104553 11 72 0.0 1.6 0.00 0.18 0.00 79 1019.9
20260507103553 11 0.0 0.0 0.00 0.18 0.00 79 1019.9
20260507102553 11 0.0 1.6 0.00 0.18 0.00 79 1019.9
20260507101553 11 0.0 0.0 0.00 0.18 0.00 78 1019.6
20260507100553 11 0.0 0.0 0.00 0.18 0.00 77 1019.9
20260507095553 11 0.0 0.0 0.00 0.18 0.00 77 1019.7
20260507094553 11 0.0 0.0 0.00 0.18 0.00 77 1019.5
20260507093553 11 0.0 0.0 0.00 0.18 0.00 76 1019.7
20260507092613 11 0.0 0.0 0.00 0.18 0.00 76 1019.6
20260507091552 11 0.0 0.0 0.00 0.18 0.00 76 1019.5
20260507090553 11 73 0.0 1.6 0.00 0.18 0.00 76 1019.4
20260507085552 11 0.0 0.0 0.00 0.18 0.00 77 1019.3
20260507084553 11 0.0 0.0 0.00 0.18 0.00 74 1019.4
20260507083553 11 0.0 0.0 0.00 0.18 0.00 74 1019.5
20260507082553 11 0.0 0.0 0.00 0.18 0.00 75 1019.6
20260507081553 12 0.0 0.0 0.00 0.18 0.00 73 1019.5
20260507080553 11 0.0 0.0 0.00 0.18 0.00 73 1019.6
20260507075633 12 0.0 0.0 0.00 0.18 0.00 74 1019.3
20260507074615 12 0.0 1.6 0.00 0.18 0.00 73 1019.2
20260507073555 12 0.0 0.0 0.00 0.18 0.00 74 1019.1
20260507072555 12 0.0 0.0 0.00 0.18 0.00 74 1019.1
20260507071555 12 0.0 1.6 0.00 0.18 0.00 74 1019.1
20260507070614 12 0.0 0.0 0.00 0.18 0.00 74 1019.2
20260507065555 12 62 0.0 1.6 0.00 0.18 0.00 76 1019.3
20260507064601 12 82 0.0 1.6 0.00 0.18 0.00 76 1019.3
20260507063555 12 68 0.0 1.6 0.00 0.18 0.00 75 1019.3
20260507062554 12 79 1.6 16.1 0.00 0.18 0.00 77 1019.4
20260507061555 12 62 0.0 3.2 0.00 0.18 0.00 79 1019.5
20260507060559 12 87 0.0 3.2 0.00 0.18 0.00 80 1019.7
20260507055615 12 73 0.0 3.2 0.00 0.18 0.00 80 1019.8
20260507054554 12 76 0.0 9.7 0.00 0.18 0.00 80 1019.7
20260507053555 12 69 0.0 3.2 0.00 0.18 0.00 80 1019.5
20260507052555 12 71 0.0 4.8 0.00 0.18 0.00 80 1019.3
20260507051555 13 89 1.6 4.8 0.00 0.18 0.00 80 1019.3
20260507050555 13 98 0.0 4.8 0.00 0.18 0.00 80 1018.9
20260507045556 13 58 0.0 9.7 0.00 0.18 0.00 79 1018.9
20260507044615 13 64 1.6 4.8 0.00 0.18 0.00 79 1019.0
20260507043556 13 128 0.0 1.6 0.00 0.18 0.00 80 1018.7
20260507042555 13 92 0.0 1.6 0.00 0.18 0.00 80 1018.0
20260507041555 13 86 0.0 3.2 0.00 0.18 0.00 79 1018.3
20260507040555 13 0.0 0.0 0.00 0.18 0.00 81 1018.7
20260507035555 13 43 0.0 4.8 0.00 0.18 0.18 81 1018.4
20260507034555 14 0.0 0.0 0.00 0.18 0.18 79 1018.6
20260507033555 14 0.0 3.2 0.00 0.18 0.18 78 1019.1
20260507032555 14 47 0.0 3.2 0.00 0.18 0.18 80 1018.6
20260507031556 15 0.0 1.6 0.00 0.18 0.18 80 1018.2
20260507030554 15 0.0 0.0 0.00 0.18 0.18 78 1017.8
20260507025555 15 97 0.0 4.8 0.00 0.18 0.18 78 1018.3
20260507024635 15 0.0 1.6 0.00 0.18 0.18 78 1018.4
20260507023555 15 49 0.0 4.8 0.00 0.18 0.18 79 1018.3
20260507022556 15 87 1.6 4.8 0.00 0.18 0.18 80 1018.1
20260507021556 16 60 0.0 4.8 0.00 0.18 0.18 81 1017.4
20260507020555 16 0.0 1.6 0.00 0.18 0.18 81 1017.3
20260507015555 16 0.0 3.2 0.00 0.18 0.18 81 1017.4
20260507014555 16 42 0.0 3.2 0.00 0.18 0.18 81 1018.0
20260507013555 16 64 0.0 3.2 0.00 0.18 0.18 81 1017.4
20260507012555 16 62 0.0 6.4 0.00 0.18 0.18 82 1017.0
20260507011555 17 86 0.0 3.2 0.00 0.18 0.18 83 1017.0
20260507010615 17 0.0 0.0 0.00 0.18 0.18 83 1016.8
20260507005555 17 0.0 0.0 0.00 0.18 0.18 82 1017.1
20260507004555 17 84 0.0 1.6 0.00 0.18 0.18 80 1017.0
20260507003555 17 0.0 0.0 0.00 0.18 0.18 80 1016.9
20260507002555 18 0.0 0.0 0.00 0.18 0.18 80 1016.9
20260507001555 18 0.0 3.2 0.00 0.18 0.18 80 1016.6
20260507000615 18 7 1.6 3.2 0.00 0.18 0.18 78 1016.5
20260506235555 18 76 1.6 4.8 0.00 0.18 0.18 78 1016.4
20260506234555 18 17 0.0 6.4 0.00 0.18 0.18 77 1016.5
20260506233554 19 60 1.6 4.8 0.00 0.18 0.18 76 1016.2
20260506232555 19 81 1.6 4.8 0.00 0.18 0.18 75 1016.3
20260506231555 20 42 1.6 4.8 0.00 0.18 0.18 75 1015.9
20260506230635 20 317 0.0 4.8 0.00 0.18 0.18 74 1015.8
20260506225555 21 0.0 0.0 0.00 0.18 0.18 74 1015.8
20260506224554 21 0.0 3.2 0.00 0.18 0.18 72 1015.6
20260506223555 21 326 0.0 3.2 0.00 0.18 0.18 75 1015.3
20260506222635 21 0.0 0.0 0.00 0.18 0.18 80 1015.2